Погода в Бубнове

Россия / Смоленская область     54°42′05″N   32°14′40″E
темп.,
°C
ветер,
м/с
пор.,
м/с
влажн.,
%
обл.,
%
осадки,
мм/ч
давл.,
гПа
погр.,
м
6 мая, чт
чт600:00+10ю51385100 0.0 1003306
03:00+8ююв6149149 0.0 1002297
06:00+9ююв81693100 0.0 1000510
09:00+10ю91688100 0.1 998904
12:00+5з71393100 3.8 1000676
15:00+8зюз71179100 4.1 10031258
18:00+9зюз8137667 1.0 10051346
21:00+5юз410879 1.4 1007283
7 мая, пт
пт700:00+4юз513855 0.0 1009380
03:00+2ююз411890 0.0 1010236
06:00+2ююз4118611 0.0 1010224
09:00+7ююз71275100 0.1 1010894
12:00+11ююз91266100 0.9 10091590
15:00+12юз71062100 1.9 10091607
18:00+10ююз71178100 0.8 1008929
21:00+8ююв81491100 6.6 10061056
8 мая, сб
сб800:00+9ю71395100 1.9 1004743
03:00+9ююз41095100 2.4 1003518
06:00+9ююз5995100 0.9 1002587
09:00+9юз6884100 1.2 1002757
12:00+8юз7108151 0.4 10031049
15:00+4з91396100 0.8 1006816
18:00+7з7117482 0.3 10081317
21:00+5з612817 0.3 1010534
9 мая, вс
вс900:00+3з513905 0.0 1012442
03:00+2з511935 0.0 1015381
06:00+1зсз5119516 0.0 1018349
09:00+6сз58695 0.0 1020663
12:00+10зсз57485 0.0 10221632
15:00+11зсз56455 0.0 10231833
18:00+11зсз345335 0.0 10241582
21:00+6юз226611 0.0 102616
10 мая, пн
пн1000:00+5ююз33665 0.0 102721
03:00+4ююз34725 0.0 102842
06:00+4ююз35775 0.0 102993
09:00+10ююз45625 0.0 1029416
12:00+14ююз445314 0.0 10291144
15:00+15ююз335181 0.0 10281253
18:00+15ю22564 0.0 10271029
21:00+10ююв22730 0.0 102816